SCP
-0 0 0 0 -0 0 0 0 0 0 -0 0 -0 -0 -0 0 -0 -0 -0 -0 -0 -0 -0 -0 -0 -0 -0 -0 0 0 0 0
-0 -0 -0 0 0 -0 0 -0 0 0 -0 0 0 -0 -0 -0 -0 -0 -0 -0 -1 -1 -0 -0 -0 -0 -0 -0 -0 0 0 0
-0 0 -0 -0 -0 -0 0 -0 0 0 0 0 0 -0 -0 -0 -0 -0 -0 -0 -0 -1 -0 -0 -0 -0 -0 -0 -0 -0 0 0
0 -0 -0 -0 -0 0 0 0 0 0 0 -0 -0 -0 -0 -0 -0 -0 -0 -0 -0 -0 -0 -0 -0 -0 -0 -0 -0 -0 0 0
0 0 -0 0 0 0 0 0 0 0 0 0 -0 -0 -0 -0 -0 -0 -0 -0 -0 -0 -0 -0 -0 -0 -0 -0 -0 -0 -0 0
0 0 0 0 0 -0 0 0 0 0 0 -0 -0 -0 -0 -0 -0 0 -0 -0 -0 0 0 0 0 0 0 0 0 0 0 -0
0 0 0 0 0 0 -0 0 0 0 0 0 0 -0 0 0 0 0 0 0 0 0 0 0 0 0 0 0 0 0 0 0
-0 -0 0 0 -0 -0 -0 0 0 0 0 0 -0 0 0 0 0 0 -0 0 0 0 0 0 0 0 0 0 -0 -0 -0 -0
-0 -0 0 0 0 -0 -0 -0 -0 0 0 0 0 0 0 0 0 -0 0 0 0 0 0 0 0 0 0 0 0 0 0 -0
0 -0 0 0 0 0 -0 -0 -0 -0 0 0 0 0 0 0 0 0 0 0 0 0 0 0 0 0 0 0 0 0 0 0
0 0 0 0 0 0 -0 -0 -0 0 0 0 0 0 1 1 0 0 0 0 0 0 -0 0 0 0 0 0 0 0 0 0
0 0 0 0 0 0 -0 0 0 -0 0 -0 -0 0 0 0 0 -0 -0 -0 0 0 0 0 0 0 0 0 0 0 0 0
0 0 -0 -0 0 0 -0 0 0 0 0 -0 -0 0 0 0 0 0 0 -0 0 0 0 0 0 0 0 0 0 0 0 0
0 0 -0 0 0 0 0 -0 0 0 0 -0 -0 0 0 0 0 0 0 0 0 0 0 0 0 1 1 0 0 0 0 0
0 -0 0 0 0 -0 -0 -0 0 0 0 0 0 0 0 0 0 0 0 0 0 0 0 0 0 0 0 0 0 0 0 0
0 0 0 0 0 0 0 0 0 0 0 0 0 0 0 0 0 0 0 0 0 0 0 0 0 0 0 1 1 0 0 1
0 0 0 0 0 -0 0 0 0 0 0 0 -0 0 -0 0 0 0 0 0 0 0 0 0 0 0 0 0 1 0 -1 -0
0 0 0 0 0 0 0 0 0 0 0 0 0 0 0 0 0 0 0 0 0 0 0 0 0 0 1 0 0 0 0 0
0 0 0 0 0 0 0 0 0 0 0 0 0 0 0 0 0 0 0 0 0 0 0 0 0 0 0 0 0 0 0 0
0 0 0 0 0 0 0 0 0 0 0 0 0 0 0 0 0 0 0 0 0 0 0 0 0 0 0 0 0 0 -0 -0
Wind_Speed_500mb
8 7 8 10 12 15 22 51 47 16 21 13 11 32 68 48 71 63 56 54 49 43 39 37 34 32 30 27 28 27 26 25
8 8 16 16 18 12 20 31 6 40 13 20 9 52 44 62 68 62 58 54 48 43 40 37 35 32 29 27 26 26 24 23
2 9 15 21 50 20 12 25 15 27 7 8 24 30 49 58 61 59 59 53 47 42 40 38 35 33 29 27 25 24 23 22
6 12 12 13 24 15 31 44 40 34 17 9 29 34 58 51 55 51 52 52 47 42 39 37 36 34 32 28 26 24 23 21
7 13 14 9 18 15 30 19 11 31 11 25 45 47 49 41 43 48 47 49 47 44 40 37 36 34 31 28 25 24 22 21
7 9 11 26 21 19 48 17 42 9 11 18 48 43 40 30 37 51 48 44 45 45 42 39 37 32 30 29 26 23 21 20
8 8 9 24 15 36 29 44 25 25 48 54 50 46 43 41 40 42 41 41 39 40 40 36 34 32 30 26 23 22 20 19
8 9 7 25 12 18 20 42 35 45 39 67 62 52 42 43 43 41 36 35 40 39 38 36 34 32 28 26 26 24 21 19
7 9 28 20 22 4 39 7 50 52 54 65 64 54 38 43 38 29 27 23 28 36 35 37 36 33 31 28 26 25 25 23
14 11 9 7 13 6 30 33 34 35 41 42 44 34 25 14 34 42 37 28 20 23 37 39 36 36 34 32 30 30 29 27
11 9 8 4 12 14 22 38 30 30 28 32 29 28 21 11 25 32 41 32 33 30 31 28 29 35 33 30 28 32 35 32
8 11 5 7 4 11 23 38 43 43 46 34 24 17 19 18 34 14 25 28 41 43 43 41 29 27 31 28 27 30 36 31
11 5 4 2 11 6 21 49 63 63 59 56 41 29 22 18 27 44 45 54 30 46 53 53 46 35 33 40 37 36 33 31
13 7 8 9 16 18 36 69 58 70 65 60 56 43 31 15 18 32 51 52 44 30 50 61 51 55 53 54 52 44 39 39
20 19 11 8 7 43 82 86 55 57 62 60 56 47 38 32 22 12 18 30 39 35 36 59 64 56 53 45 51 61 52 52
10 4 13 5 2 19 46 59 53 49 52 54 63 52 43 41 32 25 15 21 24 36 33 49 43 57 56 76 62 52 57 53
12 13 9 4 5 25 35 43 32 41 56 56 57 57 52 53 48 34 26 15 14 38 44 52 51 58 60 56 52 58 69 76
8 17 10 6 12 16 22 25 30 34 41 45 46 45 47 50 52 49 39 30 12 6 14 29 42 46 50 52 54 55 63 63
3 10 5 3 7 13 19 32 34 37 39 42 43 44 44 45 45 40 41 36 25 15 9 11 15 23 39 49 52 60 57 60
10 9 4 8 7 2 14 11 21 27 34 37 38 38 38 36 39 42 40 32 27 25 22 20 19 20 18 18 28 30 36 43
Wind_Direction_500mb
130 126 188 236 222 180 188 186 175 135 100 81 101 134 147 165 163 164 160 157 159 158 153 149 146 143 141 142 139 137 136 135
74 276 263 232 258 199 173 213 214 126 67 94 143 144 158 159 161 164 159 159 160 159 155 151 146 144 143 142 142 140 139 139
332 253 265 259 249 177 156 183 155 122 94 64 150 164 160 160 164 169 160 161 160 161 157 153 149 146 146 142 139 136 135 135
308 265 271 249 236 73 109 115 115 97 86 51 149 166 158 160 163 175 165 163 162 164 162 158 156 154 153 149 145 141 135 129
268 286 308 307 46 91 103 133 46 124 95 143 152 154 152 155 167 179 174 168 167 168 168 167 165 163 162 156 154 147 141 136
326 323 355 354 69 85 105 96 118 102 132 157 156 151 151 150 170 177 181 178 175 175 176 176 174 174 173 167 166 163 156 149
287 324 294 359 70 73 100 93 74 102 141 156 156 167 166 165 163 172 183 189 188 187 185 185 186 184 187 184 181 181 176 167
227 255 39 46 74 99 100 99 99 122 136 158 162 177 178 178 179 178 182 192 203 200 196 195 199 202 202 203 202 201 199 194
251 60 43 28 62 97 114 34 151 155 154 165 159 162 174 189 202 203 197 198 201 215 216 214 215 213 216 220 223 224 221 217
182 81 58 40 101 72 137 160 153 172 158 142 148 140 131 128 215 214 208 217 224 224 228 228 227 228 231 231 236 238 236 234
96 88 73 115 317 136 167 159 153 111 106 98 103 120 129 114 191 218 228 228 226 232 230 233 234 238 235 236 248 259 253 248
17 10 339 144 224 91 185 153 103 114 97 104 112 142 169 116 136 165 189 227 233 233 230 234 240 249 240 247 258 269 251 253
313 298 289 104 345 233 173 109 102 102 92 84 89 121 151 198 204 200 236 249 229 225 228 234 242 255 261 259 258 265 257 249
292 84 227 99 282 289 145 120 105 104 98 88 80 85 92 115 194 237 259 237 235 229 242 230 239 236 238 241 256 261 266 262
299 209 142 109 276 51 124 122 119 113 108 99 90 90 97 103 112 90 224 225 230 251 239 227 234 231 249 251 249 259 263 263
218 227 75 88 53 68 117 120 121 118 115 107 101 98 91 91 89 93 92 210 204 215 216 214 234 235 267 256 247 254 259 259
15 0 98 114 41 116 104 99 99 112 122 126 115 105 91 85 81 77 86 100 181 207 217 229 241 245 260 244 259 262 274 266
341 4 74 32 53 104 85 86 100 89 81 85 86 82 75 70 66 64 62 62 60 312 249 248 239 242 259 255 255 268 272 268
96 309 50 108 0 102 68 85 87 84 84 77 72 70 63 50 46 45 43 42 46 53 31 0 312 285 260 260 262 261 274 275
22 61 261 77 267 141 110 60 68 76 73 72 66 61 56 51 46 42 41 35 32 36 35 29 13 346 336 325 312 326 322 314
Wind_Speed_850mb
8 7 8 10 12 15 22 51 47 16 21 13 11 32 68 48 71 63 56 54 49 43 39 37 34 32 30 27 28 27 26 25
8 8 16 16 18 12 20 31 6 40 13 20 9 52 44 62 68 62 58 54 48 43 40 37 35 32 29 27 26 26 24 23
2 9 15 21 50 20 12 25 15 27 7 8 24 30 49 58 61 59 59 53 47 42 40 38 35 33 29 27 25 24 23 22
6 12 12 13 24 15 31 44 40 34 17 9 29 34 58 51 55 51 52 52 47 42 39 37 36 34 32 28 26 24 23 21
7 13 14 9 18 15 30 19 11 31 11 25 45 47 49 41 43 48 47 49 47 44 40 37 36 34 31 28 25 24 22 21
7 9 11 26 21 19 48 17 42 9 11 18 48 43 40 30 37 51 48 44 45 45 42 39 37 32 30 29 26 23 21 20
8 8 9 24 15 36 29 44 25 25 48 54 50 46 43 41 40 42 41 41 39 40 40 36 34 32 30 26 23 22 20 19
8 9 7 25 12 18 20 42 35 45 39 67 62 52 42 43 43 41 36 35 40 39 38 36 34 32 28 26 26 24 21 19
7 9 28 20 22 4 39 7 50 52 54 65 64 54 38 43 38 29 27 23 28 36 35 37 36 33 31 28 26 25 25 23
14 11 9 7 13 6 30 33 34 35 41 42 44 34 25 14 34 42 37 28 20 23 37 39 36 36 34 32 30 30 29 27
11 9 8 4 12 14 22 38 30 30 28 32 29 28 21 11 25 32 41 32 33 30 31 28 29 35 33 30 28 32 35 32
8 11 5 7 4 11 23 38 43 43 46 34 24 17 19 18 34 14 25 28 41 43 43 41 29 27 31 28 27 30 36 31
11 5 4 2 11 6 21 49 63 63 59 56 41 29 22 18 27 44 45 54 30 46 53 53 46 35 33 40 37 36 33 31
13 7 8 9 16 18 36 69 58 70 65 60 56 43 31 15 18 32 51 52 44 30 50 61 51 55 53 54 52 44 39 39
20 19 11 8 7 43 82 86 55 57 62 60 56 47 38 32 22 12 18 30 39 35 36 59 64 56 53 45 51 61 52 52
10 4 13 5 2 19 46 59 53 49 52 54 63 52 43 41 32 25 15 21 24 36 33 49 43 57 56 76 62 52 57 53
12 13 9 4 5 25 35 43 32 41 56 56 57 57 52 53 48 34 26 15 14 38 44 52 51 58 60 56 52 58 69 76
8 17 10 6 12 16 22 25 30 34 41 45 46 45 47 50 52 49 39 30 12 6 14 29 42 46 50 52 54 55 63 63
3 10 5 3 7 13 19 32 34 37 39 42 43 44 44 45 45 40 41 36 25 15 9 11 15 23 39 49 52 60 57 60
10 9 4 8 7 2 14 11 21 27 34 37 38 38 38 36 39 42 40 32 27 25 22 20 19 20 18 18 28 30 36 43
Wind_Direction_850mb
130 126 188 236 222 180 188 186 175 135 100 81 101 134 147 165 163 164 160 157 159 158 153 149 146 143 141 142 139 137 136 135
74 276 263 232 258 199 173 213 214 126 67 94 143 144 158 159 161 164 159 159 160 159 155 151 146 144 143 142 142 140 139 139
332 253 265 259 249 177 156 183 155 122 94 64 150 164 160 160 164 169 160 161 160 161 157 153 149 146 146 142 139 136 135 135
308 265 271 249 236 73 109 115 115 97 86 51 149 166 158 160 163 175 165 163 162 164 162 158 156 154 153 149 145 141 135 129
268 286 308 307 46 91 103 133 46 124 95 143 152 154 152 155 167 179 174 168 167 168 168 167 165 163 162 156 154 147 141 136
326 323 355 354 69 85 105 96 118 102 132 157 156 151 151 150 170 177 181 178 175 175 176 176 174 174 173 167 166 163 156 149
287 324 294 359 70 73 100 93 74 102 141 156 156 167 166 165 163 172 183 189 188 187 185 185 186 184 187 184 181 181 176 167
227 255 39 46 74 99 100 99 99 122 136 158 162 177 178 178 179 178 182 192 203 200 196 195 199 202 202 203 202 201 199 194
251 60 43 28 62 97 114 34 151 155 154 165 159 162 174 189 202 203 197 198 201 215 216 214 215 213 216 220 223 224 221 217
182 81 58 40 101 72 137 160 153 172 158 142 148 140 131 128 215 214 208 217 224 224 228 228 227 228 231 231 236 238 236 234
96 88 73 115 317 136 167 159 153 111 106 98 103 120 129 114 191 218 228 228 226 232 230 233 234 238 235 236 248 259 253 248
17 10 339 144 224 91 185 153 103 114 97 104 112 142 169 116 136 165 189 227 233 233 230 234 240 249 240 247 258 269 251 253
313 298 289 104 345 233 173 109 102 102 92 84 89 121 151 198 204 200 236 249 229 225 228 234 242 255 261 259 258 265 257 249
292 84 227 99 282 289 145 120 105 104 98 88 80 85 92 115 194 237 259 237 235 229 242 230 239 236 238 241 256 261 266 262
299 209 142 109 276 51 124 122 119 113 108 99 90 90 97 103 112 90 224 225 230 251 239 227 234 231 249 251 249 259 263 263
218 227 75 88 53 68 117 120 121 118 115 107 101 98 91 91 89 93 92 210 204 215 216 214 234 235 267 256 247 254 259 259
15 0 98 114 41 116 104 99 99 112 122 126 115 105 91 85 81 77 86 100 181 207 217 229 241 245 260 244 259 262 274 266
341 4 74 32 53 104 85 86 100 89 81 85 86 82 75 70 66 64 62 62 60 312 249 248 239 242 259 255 255 268 272 268
96 309 50 108 0 102 68 85 87 84 84 77 72 70 63 50 46 45 43 42 46 53 31 0 312 285 260 260 262 261 274 275
22 61 261 77 267 141 110 60 68 76 73 72 66 61 56 51 46 42 41 35 32 36 35 29 13 346 336 325 312 326 322 314